When you browse on this site, cookies collect data to enhance your experience and personalize the content and advertising you see.
Visit our Privacy Policy to learn more. By continuing to use the site, you agree to this use of cookies and data.
  • In Romania
  • List of Countries
  • For 7 days
  • Water Temperature
  • Weather Map
  • Weather Widgets
  • user-avatar
    Login

    Hourly Weather Newport

    Today, 3 June, Wednesday

    Time Temperature Precipitation Wind Pressure Humidity
    00:00 +15°C° 0 mm 1 mps 756 mmHg 86%
    01:00 +15°C° 0 mm 1 mps 755 mmHg 86%
    02:00 +15°C° 0 mm 1 mps 755 mmHg 86%
    03:00 +15°C° 0 mm 1 mps 754 mmHg 86%
    04:00 +15°C° 0.3 mm 1 mps 754 mmHg 86%
    05:00 +15°C° 0.3 mm 1 mps 753 mmHg 87%
    06:00 +16°C° 0.3 mm 1 mps 753 mmHg 87%
    07:00 +15°C° 0.4 mm 2 mps 753 mmHg 86%
    08:00 +14°C° 0.4 mm 3 mps 752 mmHg 85%
    09:00 +14°C° 0.4 mm 4 mps 752 mmHg 85%
    10:00 +14°C° 0.3 mm 4 mps 752 mmHg 85%
    11:00 +14°C° 0.3 mm 4 mps 752 mmHg 86%
    12:00 +14°C° 0.3 mm 4 mps 752 mmHg 87%
    13:00 +14°C° 0.3 mm 4 mps 751 mmHg 89%
    14:00 +13°C° 0.3 mm 4 mps 751 mmHg 90%
    15:00 +13°C° 0.3 mm 4 mps 751 mmHg 92%
    16:00 +13°C° 0.1 mm 5 mps 751 mmHg 92%
    17:00 +12°C° 0.1 mm 5 mps 751 mmHg 92%
    18:00 +12°C° 0.1 mm 5 mps 751 mmHg 92%
    19:00 +11°C° 0.3 mm 6 mps 751 mmHg 92%
    20:00 +11°C° 0.3 mm 6 mps 751 mmHg 93%
    21:00 +11°C° 0.3 mm 6 mps 751 mmHg 93%
    22:00 +10°C° 0.7 mm 7 mps 751 mmHg 93%
    23:00 +10°C° 0.7 mm 7 mps 751 mmHg 93%

    Tomorrow, 4 June, Thursday

    Time Temperature Precipitation Wind Pressure Humidity
    00:00 +10°C° 0.7 mm 7 mps 751 mmHg 93%
    01:00 +9°C° 0.2 mm 7 mps 750 mmHg 92%
    02:00 +9°C° 0.2 mm 7 mps 750 mmHg 92%
    03:00 +8°C° 0.2 mm 6 mps 750 mmHg 92%
    04:00 +8°C° 0 mm 6 mps 750 mmHg 91%
    05:00 +8°C° 0 mm 6 mps 750 mmHg 90%
    06:00 +8°C° 0 mm 7 mps 750 mmHg 89%
    07:00 +9°C° 0 mm 6 mps 750 mmHg 84%
    08:00 +10°C° 0 mm 6 mps 749 mmHg 80%
    09:00 +11°C° 0 mm 6 mps 749 mmHg 76%
    10:00 +11°C° 0.1 mm 6 mps 749 mmHg 74%
    11:00 +13°C° 0.1 mm 6 mps 749 mmHg 72%
    12:00 +13°C° 0.1 mm 6 mps 749 mmHg 70%
    13:00 +14°C° 0.1 mm 5 mps 749 mmHg 68%
    14:00 +14°C° 0.1 mm 5 mps 749 mmHg 67%
    15:00 +15°C° 0.1 mm 4 mps 748 mmHg 65%
    16:00 +14°C° 0.2 mm 5 mps 748 mmHg 70%
    17:00 +14°C° 0.2 mm 5 mps 748 mmHg 74%
    18:00 +13°C° 0.2 mm 5 mps 748 mmHg 78%
    19:00 +12°C° 0.1 mm 5 mps 748 mmHg 81%
    20:00 +10°C° 0.1 mm 6 mps 748 mmHg 84%
    21:00 +9°C° 0.1 mm 6 mps 748 mmHg 87%
    22:00 +9°C° 0 mm 5 mps 748 mmHg 89%
    23:00 +8°C° 0 mm 5 mps 747 mmHg 90%

    Day after tomorrow, 5 June, Friday

    Time Temperature Precipitation Wind Pressure Humidity
    00:00 +8°C° 0 mm 4 mps 747 mmHg 92%
    01:00 +8°C° 0.4 mm 5 mps 747 mmHg 92%
    02:00 +9°C° 0.4 mm 6 mps 746 mmHg 92%
    03:00 +9°C° 0.4 mm 6 mps 746 mmHg 92%
    04:00 +9°C° 0 mm 7 mps 746 mmHg 90%
    05:00 +9°C° 0 mm 7 mps 745 mmHg 88%
    06:00 +9°C° 0 mm 8 mps 745 mmHg 85%
    07:00 +10°C° 0 mm 8 mps 745 mmHg 78%
    08:00 +11°C° 0 mm 8 mps 746 mmHg 71%
    09:00 +12°C° 0 mm 9 mps 746 mmHg 63%
    10:00 +12°C° 0 mm 8 mps 746 mmHg 62%
    11:00 +13°C° 0 mm 8 mps 746 mmHg 60%
    12:00 +15°C° 0 mm 8 mps 746 mmHg 59%
    13:00 +15°C° 0.1 mm 8 mps 746 mmHg 59%
    14:00 +15°C° 0.1 mm 8 mps 746 mmHg 58%
    15:00 +15°C° 0.1 mm 9 mps 746 mmHg 58%
    16:00 +15°C° 0 mm 8 mps 746 mmHg 58%
    17:00 +13°C° 0 mm 8 mps 746 mmHg 58%
    18:00 +14°C° 0 mm 7 mps 745 mmHg 57%
    19:00 +11°C° 0.1 mm 7 mps 746 mmHg 65%
    20:00 +10°C° 0.1 mm 7 mps 746 mmHg 73%
    21:00 +7°C° 0.1 mm 8 mps 746 mmHg 81%
    22:00 +7°C° 0 mm 8 mps 746 mmHg 81%
    23:00 +6°C° 0 mm 8 mps 746 mmHg 81%

    6 June, Saturday

    Time Temperature Precipitation Wind Pressure Humidity
    00:00 +6°C° 0 mm 8 mps 746 mmHg 80%
    01:00 +5°C° 0 mm 8 mps 746 mmHg 81%
    02:00 +5°C° 0 mm 8 mps 746 mmHg 81%
    03:00 +5°C° 0 mm 8 mps 746 mmHg 81%
    04:00 +5°C° 0 mm 8 mps 746 mmHg 77%
    05:00 +6°C° 0 mm 9 mps 746 mmHg 74%
    06:00 +6°C° 0 mm 9 mps 746 mmHg 71%
    07:00 +7°C° 0 mm 9 mps 747 mmHg 66%
    08:00 +8°C° 0 mm 10 mps 747 mmHg 61%
    09:00 +11°C° 0 mm 10 mps 747 mmHg 56%
    10:00 +11°C° 0 mm 10 mps 747 mmHg 58%
    11:00 +11°C° 0 mm 11 mps 747 mmHg 60%
    12:00 +11°C° 0 mm 11 mps 747 mmHg 63%
    13:00 +11°C° 0.1 mm 11 mps 747 mmHg 68%
    14:00 +9°C° 0.1 mm 11 mps 747 mmHg 74%
    15:00 +8°C° 0.1 mm 11 mps 747 mmHg 80%
    16:00 +8°C° 0.1 mm 11 mps 747 mmHg 80%
    17:00 +9°C° 0.1 mm 11 mps 747 mmHg 81%
    18:00 +9°C° 0.1 mm 10 mps 747 mmHg 81%
    19:00 +9°C° 0 mm 10 mps 747 mmHg 81%
    20:00 +8°C° 0 mm 9 mps 748 mmHg 82%
    21:00 +8°C° 0 mm 9 mps 748 mmHg 82%
    22:00 +8°C° 0 mm 9 mps 748 mmHg 81%
    23:00 +8°C° 0 mm 9 mps 748 mmHg 81%

    7 June, Sunday

    Time Temperature Precipitation Wind Pressure Humidity
    00:00 +9°C° 0 mm 8 mps 748 mmHg 80%
    01:00 +9°C° 0 mm 8 mps 748 mmHg 83%
    02:00 +9°C° 0 mm 8 mps 748 mmHg 86%
    03:00 +7°C° 0 mm 8 mps 749 mmHg 90%
    04:00 +9°C° 0 mm 7 mps 749 mmHg 88%
    05:00 +9°C° 0 mm 7 mps 749 mmHg 86%
    06:00 +10°C° 0 mm 7 mps 749 mmHg 84%
    07:00 +11°C° 0 mm 7 mps 749 mmHg 79%
    08:00 +12°C° 0 mm 7 mps 750 mmHg 74%
    09:00 +14°C° 0 mm 7 mps 750 mmHg 69%
    10:00 +15°C° 0.1 mm 7 mps 750 mmHg 68%
    11:00 +15°C° 0.1 mm 8 mps 750 mmHg 66%
    12:00 +15°C° 0.1 mm 8 mps 750 mmHg 65%
    13:00 +16°C° 0.1 mm 9 mps 750 mmHg 67%
    14:00 +16°C° 0.1 mm 9 mps 751 mmHg 70%
    15:00 +16°C° 0.1 mm 9 mps 751 mmHg 72%
    16:00 +15°C° 0.2 mm 8 mps 751 mmHg 74%
    17:00 +15°C° 0.2 mm 7 mps 751 mmHg 76%
    18:00 +14°C° 0.2 mm 7 mps 751 mmHg 78%
    19:00 +13°C° 0 mm 6 mps 751 mmHg 79%
    20:00 +11°C° 0 mm 6 mps 752 mmHg 80%
    21:00 +11°C° 0 mm 6 mps 752 mmHg 82%
    22:00 +11°C° 0 mm 6 mps 752 mmHg 81%
    23:00 +11°C° 0 mm 6 mps 752 mmHg 81%

    8 June, Monday

    Time Temperature Precipitation Wind Pressure Humidity
    00:00 +11°C° 0 mm 7 mps 752 mmHg 80%
    01:00 +11°C° 0 mm 6 mps 752 mmHg 81%
    02:00 +11°C° 0 mm 6 mps 752 mmHg 82%
    03:00 +11°C° 0 mm 6 mps 753 mmHg 83%
    04:00 +11°C° 0 mm 6 mps 753 mmHg 84%
    05:00 +12°C° 0 mm 5 mps 753 mmHg 85%
    06:00 +12°C° 0 mm 5 mps 754 mmHg 86%
    07:00 +13°C° 0 mm 5 mps 754 mmHg 82%
    08:00 +14°C° 0 mm 4 mps 755 mmHg 78%
    09:00 +15°C° 0 mm 4 mps 755 mmHg 75%
    10:00 +15°C° 0.3 mm 4 mps 755 mmHg 77%
    11:00 +15°C° 0.3 mm 4 mps 755 mmHg 79%
    12:00 +15°C° 0.3 mm 4 mps 756 mmHg 81%
    13:00 +16°C° 0.2 mm 3 mps 756 mmHg 81%
    14:00 +17°C° 0.2 mm 3 mps 756 mmHg 81%
    15:00 +17°C° 0.2 mm 3 mps 756 mmHg 81%
    16:00 +17°C° 0.2 mm 3 mps 756 mmHg 81%
    17:00 +17°C° 0.2 mm 3 mps 756 mmHg 82%
    18:00 +17°C° 0.2 mm 3 mps 756 mmHg 82%
    19:00 +16°C° 0.2 mm 3 mps 757 mmHg 84%
    20:00 +14°C° 0.2 mm 3 mps 757 mmHg 87%
    21:00 +13°C° 0.2 mm 3 mps 757 mmHg 90%
    22:00 +12°C° 0 mm 3 mps 757 mmHg 90%
    23:00 +12°C° 0 mm 3 mps 758 mmHg 91%
    Show more